This is the latest recevied weather packets stored in our database for station/object KD2FKI. If no packets are shown the sender has not sent any weather packets the latest 10 day(s).
| Time | Temp. | Humidity | Pressure | Rain* | Wind** | Luminosity | Snow |
|---|---|---|---|---|---|---|---|
| 1777570834 | 21.11° C | 43% | - | 0 mm | - | - | - |
| 1777570244 | 21.11° C | 44% | - | 0 mm | - | - | - |
| 1777569634 | 20.56° C | 45% | - | 0 mm | - | - | - |
| 1777569041 | 20° C | 46% | - | 0 mm | - | - | - |
| 1777568448 | 20.56° C | 45% | - | 0 mm | - | - | - |
| 1777567839 | 19.44° C | 46% | - | 0 mm | - | - | - |
| 1777567245 | 19.44° C | 46% | - | 0 mm | - | - | - |
| 1777566636 | 20° C | 44% | - | 0 mm | - | - | - |
| 1777566042 | 20° C | 44% | - | 0 mm | - | - | - |
| 1777565434 | 20° C | 43% | - | 0 mm | - | - | - |
| 1777564839 | 18.89° C | 46% | - | 0 mm | - | - | - |
| 1777564232 | 19.44° C | 48% | - | 0 mm | - | - | - |
| 1777563637 | 18.89° C | 50% | - | 0 mm | - | - | - |
| 1777563045 | 18.33° C | 53% | - | 0 mm | - | - | - |
| 1777562434 | 17.78° C | 56% | - | 0 mm | - | - | - |
| 1777561843 | 17.78° C | 56% | - | 0 mm | - | - | - |
| 1777561233 | 17.22° C | 56% | - | 0 mm | - | - | - |
| 1777560640 | 17.22° C | 59% | - | 0 mm | - | - | - |
| 1777560047 | 16.67° C | 59% | - | 0 mm | - | - | - |
| 1777559438 | 16.67° C | 59% | - | 0 mm | - | - | - |
| 1777558844 | 16.67° C | 60% | - | 0 mm | - | - | - |
| 1777558235 | 16.11° C | 59% | - | 0 mm | - | - | - |
| 1777557641 | 16.11° C | 63% | - | 0 mm | - | - | - |
| 1777557033 | 16.11° C | 63% | - | 0 mm | - | - | - |
| 1777556438 | 16.11° C | 65% | - | 0 mm | - | - | - |
* Rain latest hour (hover to see other rain measurements)
** Current wind speed in m/s (hover to see current wind gust speed)